Tracking 29892 objects as of 21-Nov-2024
HD Live streaming from Space Station
objects crossing your sky now

STARLINK-6347

Track STARLINK-6347 now!
10-day predictions
STARLINK-6347 is classified as:


NORAD ID: 57359
Int'l Code: 2023-099AH
Perigee: 565.3 km
Apogee: 567.1 km
Inclination: 43.0 °
Period: 95.8 minutes
Semi major axis: 6937 km
RCS: Unknown
Launch date: July 16, 2023
Source: United States (US)
Launch site: AIR FORCE EASTERN TEST RANGE (AFETR)
Your satellite tracking list
Your tracking list is empty




NASA's NSSDC Master Catalog

Two Line Element Set (TLE):
1 57359U 23099AH  24325.38344772  .00001329  00000-0  11344-3 0  9997
2 57359  43.0048 293.6188 0001301 259.1341 100.9355 15.02544044 74910
Source of the keplerian elements: AFSPC